TimeEDT,TemperatureF,Dew PointF,Humidity,Sea Level PressureIn,VisibilityMPH,Wind Direction,Wind SpeedMPH,Gust SpeedMPH,PrecipitationIn,Events,Conditions,WindDirDegrees,DateUTC
12:15 AM,55.4,55.4,100,30.24,0.2,East,9.2,-,N/A,Rain,Heavy Rain,80,2013-10-13 04:15:00
12:35 AM,53.6,53.6,100,30.25,0.2,ENE,9.2,-,N/A,,Drizzle,70,2013-10-13 04:35:00
12:55 AM,53.6,53.6,100,30.25,0.2,East,9.2,-,N/A,,Drizzle,80,2013-10-13 04:55:00
1:15 AM,53.6,53.6,100,30.25,0.2,ENE,8.1,-,N/A,,Heavy Drizzle,70,2013-10-13 05:15:00
1:35 AM,53.6,53.6,100,30.25,0.2,ENE,6.9,-,N/A,,Drizzle,70,2013-10-13 05:35:00
1:55 AM,53.6,53.6,100,30.26,0.2,ENE,8.1,-,N/A,,Drizzle,70,2013-10-13 05:55:00
2:15 AM,53.6,53.6,100,30.26,0.2,East,3.5,-,N/A,,Light Drizzle,90,2013-10-13 06:15:00
2:35 AM,53.6,53.6,100,30.26,0.2,East,5.8,-,N/A,,Light Drizzle,90,2013-10-13 06:35:00
2:55 AM,53.6,53.6,100,30.25,0.2,East,6.9,-,N/A,,Drizzle,90,2013-10-13 06:55:00
3:15 AM,53.6,53.6,100,30.25,0.2,East,8.1,-,N/A,Rain,Rain,80,2013-10-13 07:15:00
3:35 AM,53.6,53.6,100,30.25,0.2,East,9.2,16.1,N/A,,Heavy Drizzle,80,2013-10-13 07:35:00
3:55 AM,53.6,53.6,100,30.25,0.2,East,8.1,-,N/A,,Heavy Drizzle,90,2013-10-13 07:55:00
4:15 AM,53.6,53.6,100,30.26,0.2,Calm,Calm,-,N/A,,Light Drizzle,0,2013-10-13 08:15:00
4:35 AM,53.6,53.6,100,30.27,0.2,NE,4.6,-,N/A,,Light Drizzle,40,2013-10-13 08:35:00
4:55 AM,53.6,53.6,100,30.27,0.2,NE,3.5,-,N/A,Fog,Fog,50,2013-10-13 08:55:00
5:15 AM,53.6,53.6,100,30.27,0.2,NNE,3.5,-,N/A,Fog,Fog,20,2013-10-13 09:15:00
5:35 AM,53.6,53.6,100,30.27,0.2,NNE,3.5,-,N/A,Fog,Fog,20,2013-10-13 09:35:00
5:55 AM,53.6,53.6,100,30.28,0.2,Calm,Calm,-,N/A,Fog,Fog,0,2013-10-13 09:55:00
6:15 AM,53.6,53.6,100,30.28,0.2,NW,3.5,-,N/A,Fog,Fog,320,2013-10-13 10:15:00
6:35 AM,53.6,53.6,100,30.28,0.2,North,4.6,-,0.01,Fog,Fog,10,2013-10-13 10:35:00
6:55 AM,53.6,53.6,100,30.29,0.2,NE,3.5,-,N/A,Fog,Fog,40,2013-10-13 10:55:00
7:15 AM,53.6,53.6,100,30.29,0.2,ENE,4.6,-,N/A,Fog,Fog,60,2013-10-13 11:15:00
7:35 AM,53.6,53.6,100,30.30,0.2,ENE,4.6,-,N/A,Rain,Rain,60,2013-10-13 11:35:00
7:55 AM,53.6,53.6,100,30.30,0.2,NE,4.6,-,N/A,,Drizzle,40,2013-10-13 11:55:00
8:15 AM,53.6,53.6,100,30.31,0.2,NE,4.6,-,0.01,,Drizzle,50,2013-10-13 12:15:00
8:35 AM,53.6,53.6,100,30.31,0.2,Calm,Calm,-,0.01,,Light Drizzle,0,2013-10-13 12:35:00
8:55 AM,53.6,53.6,100,30.32,0.2,ENE,5.8,-,N/A,,Drizzle,70,2013-10-13 12:55:00
9:15 AM,53.6,53.6,100,30.32,0.2,East,5.8,-,0.01,,Light Drizzle,80,2013-10-13 13:15:00
9:35 AM,53.6,53.6,100,30.34,0.2,East,6.9,-,0.01,,Light Drizzle,80,2013-10-13 13:35:00
9:55 AM,53.6,53.6,100,30.34,0.2,East,8.1,-,N/A,,Light Drizzle,80,2013-10-13 13:55:00
10:15 AM,53.6,53.6,100,30.35,0.2,ENE,6.9,-,N/A,Fog,Fog,70,2013-10-13 14:15:00
10:35 AM,53.6,53.6,100,30.35,0.2,East,8.1,-,N/A,Fog,Fog,80,2013-10-13 14:35:00
10:55 AM,53.6,53.6,100,30.35,0.2,ENE,4.6,-,N/A,Rain,Light Rain,70,2013-10-13 14:55:00
11:15 AM,53.6,53.6,100,30.35,0.2,East,6.9,-,N/A,Fog,Fog,80,2013-10-13 15:15:00
11:55 AM,53.6,53.6,100,30.35,0.2,ENE,6.9,-,N/A,Fog,Fog,70,2013-10-13 15:55:00
12:15 PM,53.6,53.6,100,30.34,0.2,East,8.1,-,N/A,Fog,Fog,80,2013-10-13 16:15:00
12:35 PM,55.4,55.4,100,30.34,0.2,ENE,8.1,-,N/A,Fog,Fog,70,2013-10-13 16:35:00
12:55 PM,53.6,53.6,100,30.34,0.2,East,8.1,-,N/A,Fog,Fog,80,2013-10-13 16:55:00
1:15 PM,55.4,55.4,100,30.34,0.2,ENE,9.2,-,N/A,Fog,Fog,70,2013-10-13 17:15:00
1:35 PM,55.4,55.4,100,30.34,0.2,ENE,5.8,-,N/A,Fog,Fog,70,2013-10-13 17:35:00
1:55 PM,55.4,55.4,100,30.33,0.2,East,6.9,-,N/A,Fog,Fog,80,2013-10-13 17:55:00
2:15 PM,55.4,55.4,100,30.33,0.2,ENE,8.1,-,N/A,Fog,Fog,70,2013-10-13 18:15:00
2:35 PM,53.6,53.6,100,30.33,0.2,ENE,6.9,-,N/A,Fog,Fog,70,2013-10-13 18:35:00
2:55 PM,55.4,55.4,100,30.33,0.2,ENE,6.9,-,N/A,Fog,Fog,70,2013-10-13 18:55:00
3:15 PM,55.4,55.4,100,30.33,0.2,ENE,5.8,-,N/A,Fog,Fog,70,2013-10-13 19:15:00
3:35 PM,55.4,55.4,100,30.33,0.2,ENE,6.9,-,N/A,Fog,Fog,70,2013-10-13 19:35:00
3:55 PM,55.4,55.4,100,30.34,0.2,ENE,5.8,-,N/A,Fog,Fog,70,2013-10-13 19:55:00
4:15 PM,55.4,55.4,100,30.34,0.2,East,4.6,-,N/A,Fog,Fog,80,2013-10-13 20:15:00
4:35 PM,55.4,55.4,100,30.33,1.8,ENE,5.8,-,N/A,,Overcast,60,2013-10-13 20:35:00
4:55 PM,55.4,55.4,100,30.34,0.2,ENE,5.8,-,N/A,Fog,Fog,70,2013-10-13 20:55:00
5:15 PM,55.4,55.4,100,30.34,0.2,ENE,4.6,-,N/A,Fog,Fog,70,2013-10-13 21:15:00
5:35 PM,55.4,55.4,100,30.34,0.2,East,6.9,-,N/A,Fog,Fog,80,2013-10-13 21:35:00
5:55 PM,55.4,55.4,100,30.34,0.2,ENE,5.8,-,N/A,Fog,Fog,70,2013-10-13 21:55:00
6:15 PM,53.6,53.6,100,30.34,0.2,ENE,5.8,-,N/A,Fog,Fog,70,2013-10-13 22:15:00
6:35 PM,53.6,53.6,100,30.35,0.2,East,6.9,-,N/A,Fog,Fog,80,2013-10-13 22:35:00
6:55 PM,53.6,53.6,100,30.35,0.2,ENE,5.8,-,N/A,Fog,Fog,70,2013-10-13 22:55:00
7:15 PM,53.6,53.6,100,30.35,0.2,ENE,8.1,-,N/A,Fog,Fog,70,2013-10-13 23:15:00
7:35 PM,53.6,53.6,100,30.36,0.2,East,6.9,-,N/A,,Heavy Drizzle,80,2013-10-13 23:35:00
7:55 PM,53.6,53.6,100,30.36,0.2,East,8.1,-,N/A,Rain,Heavy Rain,80,2013-10-13 23:55:00
8:15 PM,53.6,53.6,100,30.37,0.2,ENE,8.1,-,N/A,Rain,Rain,70,2013-10-14 00:15:00
8:35 PM,53.6,53.6,100,30.37,0.2,East,6.9,-,0.01,,Heavy Drizzle,80,2013-10-14 00:35:00
8:55 PM,53.6,53.6,100,30.37,0.2,ENE,6.9,-,N/A,,Heavy Drizzle,70,2013-10-14 00:55:00
9:15 PM,53.6,53.6,100,30.37,0.2,ENE,6.9,-,0.01,Rain,Light Rain,70,2013-10-14 01:15:00
9:35 PM,53.6,53.6,100,30.37,0.2,East,5.8,-,0.02,,Heavy Drizzle,80,2013-10-14 01:35:00
9:55 PM,53.6,53.6,100,30.37,0.2,East,5.8,-,N/A,,Heavy Drizzle,80,2013-10-14 01:55:00
10:15 PM,53.6,53.6,100,30.37,0.2,East,6.9,-,N/A,,Heavy Drizzle,90,2013-10-14 02:15:00
10:35 PM,53.6,53.6,100,30.36,0.2,East,6.9,-,0.01,,Heavy Drizzle,80,2013-10-14 02:35:00
10:55 PM,51.8,51.8,100,30.36,0.2,ENE,8.1,-,0.01,,Heavy Drizzle,70,2013-10-14 02:55:00
11:15 PM,51.8,51.8,100,30.36,0.2,East,6.9,-,0.01,Rain,Heavy Rain,80,2013-10-14 03:15:00
11:35 PM,51.8,51.8,100,30.36,0.2,East,8.1,-,0.01,,Heavy Drizzle,80,2013-10-14 03:35:00
11:55 PM,51.8,51.8,100,30.36,0.2,ENE,8.1,-,N/A,,Heavy Drizzle,70,2013-10-14 03:55:00